QPF
0.00 0.00 0.00 0.00 0.00 0.00 0.00 0.00 0.00 0.00 0.01 0.01 0.01 0.00 0.00 0.00 0.00 0.00 0.01 0.01 0.00 0.00 0.00 0.00 0.00 0.00 0.00 0.00 0.00 0.00 0.00 0.00 0.00 0.00 0.00 0.00 0.00 0.00 0.00 0.00 0.00 0.00 0.00 0.00 0.00
0.00 0.00 0.00 0.00 0.00 0.00 0.00 0.00 0.00 0.00 0.00 0.00 0.00 0.00 0.00 0.00 0.00 0.00 0.01 0.00 0.00 0.00 0.00 0.00 0.00 0.00 0.00 0.00 0.00 0.00 0.00 0.00 0.00 0.00 0.00 0.00 0.00 0.00 0.00 0.00 0.00 0.00 0.00 0.00 0.00
0.00 0.00 0.00 0.00 0.00 0.00 0.00 0.00 0.00 0.00 0.00 0.00 0.00 0.00 0.00 0.00 0.00 0.00 0.00 0.00 0.00 0.00 0.00 0.00 0.00 0.00 0.00 0.00 0.00 0.00 0.00 0.00 0.00 0.00 0.00 0.00 0.00 0.00 0.00 0.00 0.00 0.00 0.00 0.00 0.00
0.00 0.00 0.00 0.00 0.00 0.00 0.00 0.00 0.00 0.00 0.00 0.00 0.00 0.00 0.00 0.00 0.00 0.00 0.00 0.00 0.00 0.00 0.00 0.00 0.00 0.00 0.00 0.00 0.00 0.00 0.00 0.00 0.00 0.00 0.00 0.00 0.00 0.00 0.00 0.00 0.00 0.00 0.00 0.00 0.00
0.00 0.00 0.00 0.00 0.00 0.00 0.00 0.00 0.00 0.00 0.00 0.00 0.00 0.00 0.00 0.00 0.00 0.00 0.00 0.00 0.00 0.00 0.00 0.00 0.00 0.00 0.00 0.00 0.00 0.00 0.00 0.00 0.00 0.00 0.00 0.00 0.00 0.00 0.00 0.00 0.00 0.00 0.00 0.00 0.00
0.00 0.00 0.00 0.00 0.00 0.00 0.00 0.00 0.00 0.00 0.00 0.00 0.00 0.00 0.00 0.00 0.00 0.00 0.00 0.00 0.00 0.00 0.00 0.00 0.00 0.00 0.00 0.00 0.00 0.00 0.00 0.00 0.00 0.00 0.00 0.00 0.00 0.00 0.00 0.00 0.00 0.00 0.00 0.00 0.00
0.00 0.00 0.00 0.00 0.00 0.00 0.00 0.00 0.00 0.00 0.00 0.00 0.00 0.00 0.00 0.00 0.00 0.00 0.00 0.00 0.00 0.00 0.00 0.00 0.00 0.00 0.00 0.00 0.00 0.00 0.00 0.00 0.00 0.00 0.00 0.00 0.00 0.00 0.00 0.00 0.00 0.00 0.00 0.00 0.00
0.00 0.00 0.00 0.00 0.00 0.00 0.00 0.00 0.00 0.00 0.00 0.00 0.00 0.00 0.00 0.00 0.00 0.00 0.00 0.00 0.00 0.00 0.00 0.00 0.00 0.00 0.00 0.00 0.00 0.00 0.00 0.00 0.00 0.00 0.00 0.00 0.00 0.00 0.00 0.00 0.00 0.00 0.00 0.00 0.00
0.00 0.00 0.00 0.00 0.00 0.00 0.00 0.00 0.00 0.00 0.00 0.00 0.00 0.00 0.00 0.00 0.00 0.00 0.00 0.00 0.00 0.00 0.00 0.00 0.00 0.00 0.00 0.00 0.00 0.00 0.00 0.00 0.00 0.00 0.00 0.00 0.00 0.00 0.00 0.00 0.00 0.00 0.00 0.00 0.00
0.00 0.00 0.00 0.00 0.00 0.00 0.00 0.00 0.00 0.00 0.00 0.00 0.00 0.00 0.00 0.00 0.00 0.00 0.00 0.00 0.00 0.00 0.00 0.00 0.00 0.00 0.00 0.00 0.00 0.00 0.00 0.00 0.00 0.00 0.00 0.00 0.00 0.00 0.00 0.00 0.00 0.00 0.00 0.00 0.00
0.00 0.00 0.00 0.00 0.00 0.00 0.00 0.00 0.00 0.00 0.00 0.00 0.00 0.00 0.00 0.00 0.00 0.00 0.00 0.00 0.00 0.00 0.00 0.00 0.00 0.00 0.00 0.00 0.00 0.00 0.00 0.00 0.00 0.00 0.00 0.00 0.00 0.00 0.00 0.00 0.00 0.00 0.00 0.00 0.00
0.00 0.00 0.00 0.00 0.00 0.00 0.00 0.00 0.00 0.00 0.00 0.00 0.00 0.00 0.00 0.00 0.00 0.00 0.00 0.00 0.00 0.00 0.00 0.00 0.00 0.00 0.00 0.00 0.00 0.00 0.00 0.00 0.00 0.00 0.00 0.00 0.00 0.00 0.00 0.00 0.00 0.00 0.00 0.00 0.00
0.00 0.00 0.00 0.00 0.00 0.00 0.00 0.00 0.00 0.00 0.00 0.00 0.00 0.00 0.00 0.00 0.00 0.00 0.00 0.00 0.00 0.00 0.00 0.00 0.00 0.00 0.00 0.00 0.00 0.00 0.00 0.00 0.00 0.00 0.00 0.00 0.00 0.00 0.00 0.00 0.00 0.00 0.00 0.00 0.00
0.00 0.00 0.00 0.00 0.00 0.00 0.00 0.00 0.00 0.00 0.00 0.00 0.00 0.00 0.00 0.00 0.00 0.00 0.00 0.00 0.00 0.00 0.00 0.00 0.00 0.00 0.00 0.00 0.00 0.00 0.00 0.00 0.00 0.00 0.00 0.00 0.00 0.00 0.00 0.00 0.00 0.00 0.00 0.00 0.00
0.00 0.00 0.00 0.00 0.00 0.00 0.00 0.00 0.00 0.00 0.00 0.00 0.00 0.00 0.00 0.00 0.00 0.00 0.00 0.00 0.00 0.00 0.00 0.00 0.00 0.00 0.00 0.00 0.00 0.00 0.00 0.00 0.00 0.00 0.00 0.00 0.00 0.00 0.00 0.00 0.00 0.00 0.00 0.00 0.00
0.01 0.00 0.00 0.00 0.00 0.00 0.00 0.00 0.00 0.00 0.00 0.00 0.00 0.00 0.00 0.00 0.00 0.00 0.00 0.00 0.00 0.00 0.00 0.00 0.00 0.00 0.00 0.00 0.00 0.00 0.00 0.00 0.00 0.00 0.00 0.00 0.00 0.00 0.00 0.00 0.00 0.00 0.00 0.00 0.00
0.00 0.00 0.00 0.00 0.00 0.00 0.00 0.00 0.00 0.00 0.00 0.00 0.00 0.00 0.00 0.00 0.00 0.00 0.00 0.00 0.00 0.00 0.00 0.00 0.00 0.00 0.00 0.00 0.00 0.00 0.00 0.00 0.00 0.00 0.00 0.00 0.00 0.00 0.00 0.00 0.00 0.00 0.00 0.00 0.00
0.01 0.00 0.00 0.00 0.00 0.00 0.00 0.00 0.00 0.00 0.00 0.00 0.00 0.00 0.00 0.00 0.00 0.00 0.00 0.00 0.00 0.00 0.00 0.00 0.00 0.00 0.00 0.00 0.00 0.00 0.00 0.00 0.00 0.00 0.00 0.00 0.00 0.00 0.00 0.00 0.00 0.00 0.00 0.00 0.00
0.00 0.00 0.00 0.00 0.00 0.00 0.00 0.00 0.00 0.00 0.00 0.00 0.00 0.00 0.00 0.00 0.00 0.00 0.00 0.00 0.00 0.00 0.00 0.00 0.00 0.00 0.00 0.00 0.00 0.00 0.00 0.00 0.00 0.00 0.00 0.00 0.00 0.00 0.00 0.00 0.00 0.00 0.00 0.00 0.00
0.00 0.00 0.00 0.00 0.00 0.00 0.00 0.00 0.00 0.00 0.00 0.00 0.00 0.00 0.00 0.00 0.00 0.00 0.00 0.00 0.00 0.00 0.00 0.00 0.00 0.00 0.00 0.00 0.00 0.00 0.00 0.00 0.00 0.00 0.00 0.00 0.00 0.00 0.00 0.00 0.00 0.00 0.00 0.00 0.00
0.00 0.00 0.00 0.00 0.00 0.00 0.00 0.00 0.00 0.00 0.00 0.00 0.00 0.00 0.00 0.00 0.00 0.00 0.00 0.00 0.00 0.00 0.00 0.00 0.00 0.00 0.00 0.00 0.00 0.00 0.00 0.00 0.00 0.00 0.00 0.00 0.00 0.00 0.00 0.00 0.00 0.00 0.00 0.00 0.00
0.00 0.00 0.00 0.00 0.00 0.00 0.00 0.00 0.00 0.00 0.00 0.00 0.00 0.00 0.00 0.00 0.00 0.00 0.00 0.00 0.00 0.00 0.00 0.00 0.00 0.00 0.00 0.00 0.00 0.00 0.00 0.00 0.00 0.00 0.00 0.00 0.00 0.00 0.00 0.00 0.00 0.00 0.00 0.00 0.00
0.00 0.00 0.00 0.00 0.00 0.00 0.00 0.00 0.00 0.00 0.00 0.00 0.00 0.00 0.00 0.00 0.00 0.00 0.00 0.00 0.00 0.00 0.00 0.00 0.00 0.00 0.00 0.00 0.00 0.00 0.00 0.00 0.00 0.00 0.00 0.00 0.00 0.00 0.00 0.00 0.00 0.00 0.00 0.00 0.00
0.00 0.00 0.00 0.00 0.00 0.00 0.00 0.00 0.00 0.00 0.00 0.00 0.00 0.00 0.00 0.00 0.00 0.00 0.00 0.00 0.00 0.00 0.00 0.00 0.00 0.00 0.00 0.00 0.00 0.00 0.00 0.00 0.00 0.00 0.00 0.00 0.00 0.00 0.00 0.00 0.00 0.00 0.00 0.00 0.00
0.00 0.00 0.00 0.00 0.00 0.00 0.00 0.00 0.00 0.00 0.00 0.00 0.00 0.00 0.00 0.00 0.00 0.00 0.00 0.00 0.00 0.00 0.00 0.00 0.00 0.00 0.00 0.00 0.00 0.00 0.00 0.00 0.00 0.00 0.00 0.00 0.00 0.00 0.00 0.00 0.00 0.00 0.00 0.00 0.00
0.00 0.00 0.00 0.00 0.00 0.00 0.00 0.00 0.00 0.00 0.00 0.00 0.00 0.00 0.00 0.00 0.00 0.00 0.00 0.00 0.00 0.00 0.00 0.00 0.00 0.00 0.00 0.00 0.00 0.00 0.00 0.00 0.00 0.00 0.00 0.00 0.00 0.00 0.00 0.00 0.00 0.00 0.00 0.00 0.00
0.00 0.00 0.00 0.00 0.00 0.00 0.00 0.00 0.00 0.00 0.00 0.00 0.00 0.00 0.00 0.00 0.00 0.00 0.00 0.00 0.00 0.00 0.00 0.00 0.00 0.00 0.00 0.00 0.00 0.00 0.00 0.00 0.00 0.00 0.00 0.00 0.00 0.00 0.00 0.00 0.00 0.00 0.00 0.00 0.00
MSLP
1016.20 1015.85 1015.78 1015.61 1015.40 1015.14 1014.90 1014.67 1014.51 1014.25 1013.97 1013.76 1013.59 1013.66 1013.64 1013.53 1013.44 1013.52 1013.36 1013.16 1012.78 1012.41 1012.36 1012.51 1012.60 1012.68 1012.71 1013.27 1013.61 1013.96 1014.76 1015.17 1015.31 1015.56 1015.83 1016.16 1016.14 1016.11 1016.11 1015.98 1015.89 1015.84 1015.88 1016.15 1016.31
1016.24 1016.01 1015.83 1015.56 1015.38 1015.19 1014.99 1014.78 1014.55 1014.38 1014.11 1013.88 1013.75 1013.71 1013.67 1013.59 1013.50 1013.44 1013.32 1012.85 1012.65 1012.52 1012.69 1012.79 1013.08 1013.11 1013.60 1013.94 1014.23 1014.45 1015.13 1015.18 1015.43 1015.62 1015.96 1016.19 1016.28 1016.32 1016.45 1016.34 1016.21 1016.17 1016.15 1016.30 1016.53
1016.21 1016.06 1015.92 1015.69 1015.44 1015.21 1014.97 1014.73 1014.50 1014.31 1014.10 1013.89 1013.78 1013.69 1013.69 1013.69 1013.82 1013.99 1013.35 1013.01 1012.75 1012.76 1012.96 1013.12 1013.30 1013.52 1014.20 1014.54 1014.97 1015.17 1015.40 1015.59 1015.84 1015.84 1016.08 1016.30 1016.45 1016.39 1016.40 1016.41 1016.11 1016.27 1016.36 1016.56 1016.70
1016.32 1016.14 1015.96 1015.75 1015.48 1015.25 1014.99 1014.75 1014.47 1014.24 1014.03 1013.87 1013.65 1013.62 1013.61 1013.76 1014.44 1014.05 1013.46 1013.17 1012.92 1012.81 1013.11 1013.48 1013.67 1014.20 1014.86 1015.22 1015.39 1015.62 1015.88 1015.90 1016.07 1016.19 1016.38 1016.38 1016.32 1016.41 1016.28 1015.80 1015.93 1016.25 1016.42 1016.70 1016.86
1016.17 1016.01 1015.96 1015.77 1015.55 1015.28 1014.99 1014.64 1014.34 1014.24 1014.09 1013.81 1013.72 1013.67 1013.78 1014.10 1014.29 1013.93 1013.67 1013.39 1013.11 1013.20 1013.61 1013.85 1014.23 1014.67 1015.24 1015.59 1015.75 1015.88 1016.16 1016.21 1016.23 1016.37 1016.36 1016.32 1016.31 1016.25 1015.97 1015.70 1015.91 1016.12 1016.34 1016.59 1016.91
1016.20 1016.09 1015.99 1015.86 1015.56 1015.18 1014.88 1014.62 1014.25 1014.15 1014.14 1013.98 1013.78 1013.73 1013.91 1014.30 1014.17 1014.02 1013.90 1013.58 1013.56 1013.64 1013.99 1014.12 1014.47 1014.75 1015.39 1015.94 1016.13 1016.23 1016.25 1016.31 1016.31 1016.22 1016.12 1016.17 1016.17 1016.16 1015.68 1015.52 1015.83 1016.03 1016.32 1016.48 1016.74
1016.43 1016.19 1016.02 1015.78 1015.44 1015.05 1014.72 1014.44 1014.32 1014.14 1014.09 1014.06 1013.84 1013.83 1013.96 1014.39 1014.06 1013.97 1013.84 1014.01 1013.93 1013.93 1014.24 1014.46 1014.58 1014.95 1015.58 1016.24 1016.45 1016.47 1016.50 1016.29 1016.35 1016.17 1016.08 1016.06 1016.01 1015.72 1015.47 1015.54 1015.74 1016.11 1016.42 1016.60 1016.73
1016.61 1016.31 1016.08 1015.66 1015.20 1014.85 1014.63 1014.33 1014.19 1014.11 1013.97 1013.94 1013.87 1014.00 1014.25 1014.06 1013.94 1013.91 1014.03 1014.09 1014.06 1014.15 1014.41 1014.61 1014.75 1015.43 1016.07 1016.45 1016.72 1016.87 1016.87 1016.70 1016.45 1016.21 1016.16 1016.20 1015.87 1015.45 1015.53 1015.69 1015.91 1016.24 1016.49 1016.58 1016.68
1016.46 1016.38 1016.06 1015.58 1015.16 1014.78 1014.49 1014.08 1013.93 1013.91 1013.85 1013.80 1014.04 1014.02 1014.38 1014.04 1014.02 1014.06 1014.09 1014.23 1014.27 1014.49 1014.56 1014.69 1015.10 1016.24 1016.62 1016.87 1017.39 1017.38 1017.26 1017.10 1016.68 1016.39 1016.32 1016.44 1016.18 1015.57 1015.79 1015.97 1016.03 1016.12 1016.28 1016.43 1016.62
1016.33 1016.21 1016.05 1015.66 1015.17 1014.76 1014.30 1013.94 1013.93 1013.87 1013.84 1013.84 1014.04 1014.43 1014.53 1014.29 1014.18 1014.18 1014.21 1014.27 1014.58 1014.83 1015.09 1015.41 1016.07 1016.64 1017.13 1017.21 1017.46 1017.57 1017.62 1017.56 1017.33 1017.03 1016.80 1016.64 1016.33 1015.63 1015.68 1015.96 1015.92 1016.00 1016.21 1016.28 1016.48
1015.98 1016.06 1015.85 1015.59 1015.21 1014.81 1014.39 1014.21 1014.77 1014.80 1014.36 1014.11 1014.22 1014.14 1014.20 1014.39 1014.37 1014.49 1014.44 1014.52 1014.84 1015.35 1015.89 1016.25 1016.61 1016.90 1017.03 1017.17 1017.21 1017.46 1017.76 1017.93 1017.52 1017.38 1017.28 1016.68 1016.34 1015.71 1015.38 1015.53 1015.74 1015.84 1016.08 1016.25 1016.43
1015.52 1015.74 1015.72 1015.42 1015.22 1015.06 1014.85 1015.08 1015.57 1016.06 1015.21 1014.40 1014.27 1014.22 1014.04 1014.20 1014.57 1014.64 1014.58 1015.05 1015.29 1015.86 1016.28 1016.65 1016.62 1016.61 1016.79 1017.15 1017.41 1017.74 1018.05 1018.11 1017.87 1017.81 1017.81 1017.09 1015.92 1015.67 1015.56 1015.58 1015.77 1015.87 1016.14 1016.38 1016.59
1015.15 1015.33 1015.49 1015.31 1015.07 1015.47 1015.53 1015.68 1015.91 1015.88 1015.67 1014.70 1014.16 1014.05 1013.98 1014.24 1014.45 1014.58 1014.69 1015.09 1015.60 1016.12 1016.41 1016.67 1016.76 1016.66 1016.80 1017.24 1017.57 1017.81 1018.12 1018.34 1018.57 1018.35 1018.42 1017.93 1016.42 1016.03 1015.99 1015.99 1016.01 1016.10 1016.38 1016.59 1016.70
1015.02 1015.09 1015.12 1015.26 1015.54 1015.92 1016.00 1015.73 1015.74 1015.83 1015.66 1014.74 1014.11 1013.82 1013.92 1014.09 1014.60 1014.60 1014.64 1015.04 1015.68 1016.19 1016.64 1016.79 1016.59 1016.66 1016.97 1017.26 1017.59 1017.97 1018.02 1018.45 1018.86 1019.22 1019.35 1019.00 1017.83 1016.46 1016.43 1016.55 1016.63 1016.73 1016.81 1016.85 1016.83
1014.77 1014.92 1014.95 1014.99 1015.73 1015.95 1016.23 1015.85 1015.43 1015.74 1015.76 1014.51 1014.00 1013.83 1013.85 1014.29 1014.59 1014.85 1014.75 1014.91 1015.58 1016.12 1016.63 1016.79 1016.70 1016.77 1016.98 1017.18 1017.49 1018.03 1018.33 1018.97 1019.43 1019.80 1020.12 1019.81 1019.54 1016.74 1016.85 1016.75 1016.80 1016.89 1017.01 1016.98 1017.02
1014.23 1014.73 1014.85 1015.25 1015.78 1015.93 1015.83 1015.83 1015.49 1016.23 1015.07 1014.22 1013.83 1014.00 1014.39 1014.49 1014.74 1015.04 1015.11 1015.17 1015.76 1016.34 1016.80 1016.96 1016.88 1016.89 1016.94 1017.33 1017.64 1018.15 1018.89 1019.64 1020.27 1020.52 1020.81 1020.22 1020.06 1017.18 1016.74 1016.38 1016.73 1016.93 1017.09 1017.11 1017.12
1013.69 1014.28 1014.82 1014.85 1015.33 1015.62 1015.87 1016.24 1016.21 1015.60 1014.20 1014.14 1013.87 1014.09 1014.33 1014.84 1015.16 1015.33 1015.60 1015.83 1016.01 1016.72 1017.19 1017.30 1017.23 1017.10 1017.11 1017.63 1018.09 1018.51 1019.41 1020.37 1020.99 1021.19 1021.06 1020.70 1020.32 1016.81 1016.39 1016.37 1016.47 1016.79 1017.04 1017.15 1017.09
1013.14 1013.88 1014.29 1014.64 1015.01 1015.36 1016.06 1016.55 1015.91 1013.54 1013.46 1013.34 1013.58 1014.13 1014.61 1014.92 1015.44 1015.72 1016.11 1016.42 1016.34 1016.54 1017.54 1017.75 1017.93 1017.56 1017.53 1017.82 1018.37 1019.20 1019.89 1020.90 1021.71 1022.25 1021.88 1021.08 1019.38 1016.95 1016.59 1016.51 1016.67 1016.89 1016.99 1016.96 1016.87
1012.93 1013.92 1014.48 1014.59 1014.99 1015.46 1016.37 1016.28 1013.58 1012.29 1012.19 1012.78 1013.92 1014.39 1014.92 1015.25 1015.72 1016.21 1016.53 1016.49 1016.35 1016.75 1017.52 1018.49 1018.38 1018.14 1018.09 1018.27 1018.86 1019.92 1020.64 1021.49 1022.21 1023.36 1022.74 1020.71 1018.95 1016.86 1016.65 1016.93 1017.03 1016.97 1016.92 1016.81 1016.64
1012.22 1013.38 1013.83 1013.94 1014.80 1015.70 1016.29 1014.68 1012.98 1011.68 1011.61 1012.20 1012.86 1013.65 1014.60 1015.48 1016.32 1016.66 1016.53 1016.20 1016.45 1016.69 1017.18 1018.34 1019.00 1019.06 1018.88 1018.94 1019.64 1020.02 1021.15 1022.18 1023.37 1023.77 1023.12 1020.94 1019.47 1017.09 1016.77 1016.77 1016.95 1017.00 1016.86 1016.78 1016.52
1011.32 1012.59 1013.40 1013.59 1014.45 1015.88 1015.24 1013.79 1012.40 1011.63 1011.05 1011.66 1012.42 1013.54 1014.43 1015.07 1016.03 1016.68 1016.61 1016.44 1016.50 1017.28 1017.71 1018.73 1019.42 1020.22 1019.85 1019.71 1020.00 1021.10 1021.70 1022.88 1023.59 1024.12 1023.61 1022.21 1018.32 1016.07 1016.08 1016.13 1016.53 1016.74 1016.75 1016.62 1016.28
1010.51 1011.80 1013.01 1013.44 1014.70 1014.59 1013.94 1012.57 1011.58 1011.65 1011.43 1011.36 1011.83 1012.78 1013.83 1014.94 1015.61 1016.41 1016.35 1016.23 1016.23 1016.93 1018.16 1019.01 1019.85 1020.79 1020.66 1020.74 1020.85 1021.11 1021.97 1022.63 1023.64 1024.52 1024.30 1022.93 1018.13 1015.82 1015.69 1015.73 1016.16 1016.47 1016.35 1016.06 1015.52
1010.14 1011.53 1012.73 1013.04 1013.29 1013.41 1012.97 1012.23 1011.64 1011.51 1011.41 1011.59 1012.00 1012.35 1013.38 1014.45 1015.38 1015.87 1016.08 1016.01 1016.27 1016.99 1017.64 1018.76 1020.13 1021.18 1021.52 1021.80 1021.60 1021.84 1022.24 1022.95 1023.10 1023.29 1022.87 1021.90 1017.48 1015.90 1016.02 1016.11 1016.01 1015.94 1015.62 1015.57 1015.39
1009.36 1010.47 1012.12 1012.45 1011.89 1012.23 1012.66 1011.88 1011.43 1011.05 1011.16 1011.25 1011.91 1012.44 1013.50 1014.40 1014.95 1015.74 1016.26 1016.38 1016.57 1017.03 1017.56 1018.24 1019.90 1020.58 1020.84 1021.18 1021.76 1022.09 1022.15 1022.35 1022.39 1022.70 1020.89 1018.29 1016.42 1015.80 1015.80 1015.83 1015.60 1015.37 1015.31 1015.33 1015.06
1008.01 1008.35 1008.45 1010.34 1010.60 1011.25 1011.92 1011.03 1010.61 1010.81 1011.00 1011.26 1012.04 1011.95 1012.61 1014.31 1014.98 1015.31 1015.96 1016.71 1017.19 1017.39 1018.18 1018.99 1020.29 1020.66 1020.47 1020.73 1021.11 1021.06 1020.87 1021.22 1021.25 1020.23 1019.66 1015.98 1016.06 1014.51 1015.00 1015.23 1015.22 1015.04 1015.12 1014.99 1014.64
1006.69 1007.35 1007.87 1008.57 1009.37 1010.36 1010.95 1010.28 1009.72 1009.83 1010.09 1010.76 1011.16 1011.45 1012.20 1012.73 1013.00 1014.10 1015.01 1016.00 1016.51 1018.13 1018.64 1019.40 1020.35 1020.84 1020.53 1020.22 1020.21 1019.94 1018.86 1019.20 1019.66 1019.26 1018.27 1016.83 1015.65 1014.17 1014.44 1014.67 1014.78 1014.68 1014.86 1014.61 1014.20
1004.79 1005.96 1006.19 1007.61 1008.74 1009.37 1008.57 1008.42 1008.72 1008.90 1009.54 1009.37 1009.99 1011.08 1012.04 1012.15 1012.51 1012.86 1014.06 1014.78 1015.45 1016.86 1018.74 1019.39 1020.09 1021.01 1020.98 1020.58 1019.93 1018.40 1016.20 1016.77 1017.42 1017.27 1016.97 1016.62 1014.37 1014.21 1014.32 1014.58 1014.59 1014.37 1014.40 1014.14 1013.76
Thickness
5645 5648 5648 5649 5650 5652 5653 5655 5655 5657 5659 5659 5659 5657 5656 5655 5654 5653 5650 5651 5653 5656 5657 5657 5656 5657 5659 5655 5654 5651 5645 5641 5644 5645 5646 5644 5647 5649 5649 5651 5652 5654 5657 5656 5655
5641 5642 5643 5645 5647 5648 5650 5651 5652 5653 5654 5655 5654 5653 5651 5650 5650 5646 5646 5647 5647 5648 5647 5646 5644 5646 5643 5643 5642 5642 5636 5638 5639 5639 5638 5638 5639 5641 5640 5641 5644 5647 5649 5648 5646
5636 5638 5640 5641 5643 5645 5646 5647 5649 5650 5651 5651 5650 5649 5647 5645 5641 5636 5640 5642 5642 5641 5640 5639 5638 5637 5632 5631 5629 5628 5631 5629 5630 5632 5632 5631 5630 5633 5634 5633 5642 5641 5642 5640 5639
5631 5633 5635 5637 5639 5640 5642 5643 5645 5646 5647 5647 5647 5645 5643 5641 5633 5632 5635 5636 5637 5637 5634 5631 5631 5627 5622 5621 5621 5622 5620 5623 5624 5624 5623 5624 5627 5628 5626 5638 5637 5634 5633 5632 5632
5628 5629 5630 5632 5633 5635 5638 5640 5642 5641 5641 5642 5642 5641 5639 5632 5629 5630 5630 5631 5633 5631 5626 5625 5622 5619 5616 5614 5615 5616 5613 5614 5616 5615 5615 5618 5620 5622 5622 5630 5627 5627 5626 5626 5623
5622 5624 5625 5626 5629 5631 5633 5635 5637 5637 5636 5636 5637 5637 5634 5628 5628 5627 5626 5627 5626 5625 5620 5620 5617 5614 5608 5606 5608 5605 5606 5606 5606 5612 5613 5615 5615 5613 5621 5622 5622 5622 5620 5620 5618
5612 5616 5619 5621 5623 5626 5628 5630 5631 5632 5631 5631 5632 5632 5629 5624 5626 5625 5623 5621 5621 5619 5616 5614 5613 5610 5602 5597 5595 5596 5602 5602 5600 5606 5609 5608 5609 5612 5616 5616 5617 5614 5612 5612 5612
5601 5606 5611 5615 5619 5621 5623 5626 5626 5626 5626 5626 5627 5626 5621 5625 5624 5622 5619 5617 5616 5614 5611 5609 5607 5599 5594 5590 5586 5586 5585 5597 5597 5599 5600 5603 5609 5610 5608 5609 5611 5608 5604 5604 5605
5595 5597 5601 5608 5612 5615 5618 5621 5622 5621 5621 5621 5621 5620 5616 5620 5619 5618 5616 5613 5611 5608 5606 5606 5600 5586 5584 5579 5577 5571 5586 5583 5589 5591 5595 5595 5594 5602 5598 5599 5601 5600 5598 5597 5594
5588 5591 5593 5598 5603 5608 5612 5615 5614 5615 5615 5616 5615 5613 5610 5612 5613 5613 5611 5609 5605 5603 5599 5593 5581 5577 5569 5573 5589 5581 5575 5569 5570 5583 5581 5582 5585 5593 5594 5591 5595 5592 5584 5583 5586
5582 5583 5587 5589 5594 5599 5605 5606 5601 5602 5605 5609 5608 5609 5606 5606 5606 5605 5605 5604 5601 5592 5587 5579 5582 5583 5578 5568 5570 5566 5564 5560 5563 5567 5568 5572 5575 5585 5591 5585 5586 5586 5581 5577 5578
5575 5576 5578 5583 5585 5589 5593 5594 5590 5588 5596 5600 5600 5601 5603 5602 5599 5599 5600 5596 5594 5584 5579 5576 5580 5577 5571 5564 5565 5560 5556 5555 5555 5556 5563 5562 5579 5578 5577 5580 5578 5578 5571 5569 5567
5567 5568 5570 5574 5578 5577 5579 5579 5577 5578 5582 5593 5595 5595 5597 5595 5594 5593 5594 5588 5583 5579 5574 5574 5577 5572 5574 5562 5561 5554 5549 5546 5552 5546 5543 5548 5576 5571 5573 5568 5566 5563 5560 5558 5558
5556 5559 5563 5565 5567 5564 5567 5571 5571 5570 5545 5585 5588 5591 5590 5589 5587 5588 5587 5585 5577 5575 5566 5565 5568 5570 5561 5562 5555 5553 5546 5546 5544 5541 5549 5536 5577 5560 5559 5558 5554 5550 5548 5548 5547
5545 5549 5552 5556 5555 5556 5557 5561 5566 5563 5533 5581 5581 5583 5583 5583 5579 5580 5580 5581 5572 5569 5568 5570 5565 5563 5560 5558 5550 5550 5539 5532 5528 5523 5515 5521 5524 5560 5540 5549 5546 5542 5537 5537 5533
5535 5537 5542 5543 5543 5547 5549 5551 5557 5539 5538 5573 5573 5571 5572 5574 5573 5571 5573 5571 5567 5561 5555 5554 5552 5554 5554 5543 5544 5536 5524 5510 5498 5500 5506 5500 5510 5562 5543 5546 5536 5530 5527 5527 5521
5525 5527 5530 5535 5536 5537 5539 5537 5525 5527 5575 5568 5567 5565 5570 5561 5562 5563 5562 5559 5558 5546 5553 5549 5548 5547 5547 5541 5532 5527 5513 5510 5517 5506 5529 5489 5498 5551 5538 5532 5529 5523 5518 5515 5510
5513 5516 5519 5524 5526 5527 5525 5519 5510 5569 5559 5569 5566 5560 5561 5559 5557 5555 5550 5547 5549 5547 5513 5535 5542 5537 5536 5534 5528 5510 5508 5497 5520 5509 5502 5480 5514 5547 5523 5521 5516 5511 5508 5505 5501
5501 5500 5505 5511 5513 5513 5507 5477 5542 5562 5567 5560 5557 5554 5549 5551 5542 5545 5535 5538 5541 5536 5538 5504 5533 5523 5520 5517 5516 5499 5497 5481 5461 5441 5463 5486 5498 5519 5511 5505 5499 5501 5499 5495 5489
5491 5489 5496 5501 5500 5495 5483 5524 5548 5564 5559 5559 5565 5552 5540 5535 5536 5521 5525 5539 5537 5535 5528 5514 5501 5506 5508 5504 5493 5498 5480 5481 5433 5456 5479 5486 5479 5527 5502 5498 5489 5488 5485 5478 5474
5482 5483 5485 5489 5486 5470 5481 5510 5540 5549 5560 5557 5551 5538 5540 5534 5521 5513 5521 5531 5531 5517 5511 5496 5497 5495 5494 5495 5489 5480 5474 5450 5440 5435 5465 5459 5512 5503 5498 5494 5482 5483 5473 5467 5466
5474 5476 5472 5473 5468 5470 5480 5514 5541 5535 5541 5546 5544 5540 5532 5520 5513 5505 5523 5519 5521 5513 5511 5492 5466 5467 5485 5471 5470 5472 5451 5446 5452 5432 5394 5419 5480 5497 5491 5482 5476 5469 5464 5459 5462
5463 5455 5454 5460 5471 5483 5495 5502 5520 5524 5528 5530 5535 5541 5530 5518 5512 5506 5512 5518 5510 5506 5496 5487 5460 5451 5469 5460 5457 5458 5446 5417 5405 5412 5416 5443 5495 5481 5468 5467 5465 5464 5464 5454 5448
5452 5451 5441 5450 5469 5469 5481 5494 5510 5519 5520 5524 5521 5521 5517 5513 5506 5493 5500 5505 5501 5503 5509 5494 5459 5466 5487 5459 5426 5433 5411 5436 5432 5427 5441 5471 5486 5487 5471 5467 5467 5460 5455 5443 5435
5448 5454 5465 5456 5469 5473 5461 5482 5505 5505 5512 5511 5508 5520 5518 5474 5493 5499 5492 5492 5491 5497 5480 5467 5451 5438 5452 5455 5439 5449 5441 5414 5423 5454 5449 5505 5475 5487 5477 5465 5458 5452 5437 5433 5428
5443 5450 5456 5453 5465 5462 5464 5468 5500 5503 5502 5506 5515 5512 5500 5494 5516 5494 5486 5483 5485 5464 5453 5440 5442 5445 5450 5456 5449 5453 5464 5452 5435 5444 5450 5461 5464 5477 5467 5449 5440 5438 5426 5423 5419
5451 5448 5459 5454 5447 5456 5479 5497 5495 5502 5500 5511 5511 5497 5493 5503 5504 5500 5493 5484 5485 5467 5439 5445 5431 5424 5428 5432 5440 5455 5472 5470 5455 5447 5441 5435 5466 5457 5448 5437 5433 5430 5418 5414 5407